Theta_e
311 312 313 310 308 312 305 306 302 306 310 317 322 326 327 327 329 331 335 336 337 341 343 344 344 347 348 349 352 353 353 355
310 311 311 311 315 306 306 298 298 303 306 308 315 321 324 324 327 332 335 337 338 340 343 345 345 347 350 351 352 353 353 354
311 309 308 308 307 308 308 306 300 299 306 316 316 322 324 325 327 333 335 337 339 341 343 345 347 347 349 351 352 352 352 353
308 314 314 312 310 310 304 304 307 305 305 318 319 324 327 326 329 333 337 339 341 342 344 346 347 347 348 352 351 353 354 354
306 311 312 308 311 311 311 310 306 303 306 319 320 325 329 329 330 334 337 340 342 342 344 346 348 350 350 352 352 354 353 354
303 308 311 308 310 311 310 305 306 307 309 314 317 320 327 331 333 333 336 340 342 343 345 347 349 351 352 352 355 354 354 353
309 310 310 309 309 310 309 310 306 309 310 314 317 320 325 331 334 335 336 338 341 344 346 348 350 351 352 353 355 356 354 353
308 311 310 307 309 310 310 311 311 311 311 318 320 325 327 329 331 334 336 338 341 344 346 347 348 350 351 351 353 355 354 353
305 310 309 305 309 310 311 313 313 309 315 319 319 324 326 329 333 334 337 339 342 345 346 347 349 350 350 352 354 353 354 354
305 308 299 310 316 314 312 313 316 316 317 320 323 325 329 332 332 335 338 341 344 345 346 348 349 350 352 352 353 353 353 353
302 302 307 308 312 312 312 311 317 317 318 321 323 325 327 331 335 337 341 344 346 345 347 350 349 351 351 350 351 351 350 350
305 299 297 308 315 319 318 308 320 321 321 320 323 315 321 332 334 338 342 345 344 345 348 345 347 349 347 348 349 349 348 350
303 301 305 314 317 320 306 309 321 322 324 323 321 324 330 330 332 334 342 345 346 347 341 344 347 345 345 347 347 350 353 351
303 300 297 317 317 311 318 322 323 324 325 324 327 328 329 329 331 333 334 344 346 343 343 348 346 345 345 345 350 352 349 347
307 307 316 318 316 319 321 321 323 323 324 325 326 328 329 331 332 334 336 339 346 343 345 346 347 346 344 347 349 348 348 345
308 311 313 315 318 320 324 323 325 325 324 325 325 329 331 333 334 335 338 340 346 345 345 345 346 345 344 346 347 345 344 343
307 310 312 315 318 319 319 320 322 325 324 324 326 329 332 334 337 338 340 342 346 346 346 345 344 341 342 345 345 342 342 341
304 312 312 314 317 317 317 318 320 322 324 326 327 329 333 335 339 341 343 345 347 349 346 342 339 340 342 342 343 341 340 337
312 317 315 318 318 317 315 318 322 324 326 324 326 328 332 335 339 335 345 346 347 347 345 342 339 340 341 342 343 342 339 339
Wind_Speed
6 9 18 13 9 15 13 9 9 7 4 10 2 1 6 5 6 9 15 20 19 18 17 18 19 18 17 16 16 16 17 15
2 5 6 16 7 8 12 10 12 6 5 8 5 4 7 7 8 8 10 16 17 16 16 16 17 17 17 16 16 16 16 15
8 11 10 9 12 13 14 9 12 13 4 6 2 5 9 8 8 11 12 14 15 15 15 16 15 15 16 15 15 14 14 14
15 14 8 11 14 14 11 10 8 9 11 6 1 3 8 10 10 12 12 14 14 13 13 14 14 14 14 14 14 14 13 13
15 16 9 11 15 17 17 16 13 12 10 8 5 6 8 10 12 11 12 13 13 14 13 13 13 13 13 13 13 12 13 14
15 14 8 7 9 11 17 15 15 15 14 8 9 9 9 12 12 13 12 14 13 13 13 13 12 13 13 13 13 12 12 12
18 19 21 22 19 19 13 16 21 18 14 11 10 8 9 12 14 14 14 15 14 13 12 12 12 12 12 12 12 12 11 11
17 19 23 24 23 21 21 18 18 21 21 14 6 4 8 10 13 15 14 15 15 13 13 13 12 12 12 12 12 11 10 10
18 19 21 22 17 19 23 21 18 18 18 17 8 12 11 10 13 14 16 15 15 15 14 13 13 12 12 11 10 9 9 8
15 17 23 14 18 13 18 19 21 17 19 8 9 11 7 9 11 13 15 16 15 13 13 13 13 12 11 10 9 9 9 9
17 17 19 17 11 8 13 15 16 16 16 10 5 5 11 9 6 8 12 14 14 14 14 14 14 13 12 12 10 9 9 9
16 20 23 16 11 8 7 11 12 15 13 12 8 8 2 9 4 8 11 14 14 17 17 15 14 14 13 12 12 11 9 8
14 19 20 7 12 9 13 4 13 12 11 12 7 7 7 7 6 3 9 13 15 16 15 16 15 14 13 12 11 11 11 9
11 12 11 14 9 8 12 11 11 10 9 10 12 14 11 9 6 4 7 15 18 17 15 14 15 14 13 12 10 9 10 9
6 6 11 5 11 12 12 10 8 11 11 12 13 12 11 10 9 7 5 12 16 17 18 16 14 13 14 12 11 10 10 9
9 5 6 13 14 6 8 9 11 12 13 11 14 14 12 10 10 7 5 11 15 17 18 17 15 13 14 13 11 10 9 8
15 16 17 11 4 6 9 12 13 14 14 12 14 13 12 11 9 6 5 10 14 17 18 19 18 14 15 14 13 11 10 8
12 16 12 13 13 10 13 15 17 15 15 11 10 12 11 9 7 5 6 11 10 15 19 20 19 16 15 14 13 11 10 7
13 17 17 14 12 15 10 17 17 16 13 12 11 11 10 7 5 4 7 11 12 16 12 12 17 13 11 12 12 10 8 8
Wind_Direction
210 260 238 230 239 264 290 240 257 271 278 251 99 41 151 164 186 204 196 192 196 192 194 196 192 198 199 195 196 198 198 199
99 178 214 259 310 232 219 266 269 247 260 271 335 150 163 164 174 176 188 192 194 192 195 195 198 192 198 198 196 199 198 199
201 216 224 176 225 231 278 296 299 282 248 75 331 198 189 160 160 165 172 178 185 191 193 194 200 196 197 202 201 198 203 201
251 246 243 277 253 240 231 231 230 296 293 119 265 227 202 171 166 161 168 172 177 181 183 190 198 201 198 199 201 200 201 200
250 216 208 246 236 242 246 261 268 276 268 135 193 201 208 195 174 168 173 169 172 174 182 191 197 199 203 199 204 192 198 203
272 283 310 221 238 230 260 249 247 241 256 263 208 223 195 202 187 182 183 178 178 175 181 185 193 193 199 198 202 199 192 205
266 270 279 281 271 278 247 256 266 271 260 227 273 238 210 195 193 192 186 187 184 178 179 180 184 188 194 197 190 187 187 200
275 273 271 269 265 266 259 257 267 267 275 290 262 220 229 195 196 194 191 188 178 178 174 176 177 181 183 188 189 191 195 197
261 273 274 255 258 261 262 256 246 252 261 272 221 219 227 205 200 204 193 184 180 175 173 166 167 168 171 173 172 185 191 195
270 275 258 268 270 288 283 285 267 240 264 285 252 235 244 241 218 197 192 180 176 169 164 158 156 160 155 161 173 182 192 193
259 256 261 256 261 290 298 278 277 254 247 236 227 266 247 224 244 198 187 183 171 163 156 150 152 147 153 157 160 171 178 189
252 257 254 262 17 342 295 249 5 348 325 249 189 232 152 67 162 202 178 176 171 158 152 154 151 154 157 158 160 166 168 181
237 246 258 353 326 298 246 317 349 351 341 331 283 334 37 16 39 289 181 168 169 161 164 157 157 155 156 159 164 155 157 151
242 258 245 2 300 307 2 326 333 341 351 340 325 317 322 331 345 333 234 179 180 169 161 158 160 157 155 160 147 144 151 155
313 336 351 348 333 313 307 305 326 328 334 334 323 312 321 330 326 316 256 210 185 177 158 157 166 158 154 142 154 155 159 155
298 233 319 326 313 308 343 323 316 316 320 328 326 319 321 322 321 297 235 208 186 172 164 155 157 160 140 147 148 160 155 152
286 276 274 268 272 309 318 319 307 312 315 316 311 321 327 319 310 285 227 195 188 172 167 158 150 155 148 148 154 154 149 147
284 314 309 294 297 293 310 317 302 297 293 293 294 315 319 313 312 283 209 195 172 170 166 159 148 157 150 149 154 150 142 141
279 277 278 267 288 299 301 313 285 275 269 293 298 295 302 298 292 273 197 193 166 174 148 150 138 146 151 152 150 152 135 139